Weather History for K05U - December, 2013

Change the Weather History Date:

Thursday, December 19, 2013

  Actual Average Record
Temperature  
Mean Temperature 21 °F -  
Max Temperature 32 °F - - ()
Min Temperature 10 °F - - ()
Degree Days  
Heating Degree Days 44    
Moisture  
Dew Point 25 °F    
Average Humidity 91    
Maximum Humidity 100    
Minimum Humidity 80    
Precipitation  
Precipitation 0.27 in - - ()
Sea Level Pressure  
Sea Level Pressure 29.77 in    
Wind  
Wind Speed 2 mph (SSW)    
Max Wind Speed 8 mph    
Max Gust Speed -    
Visibility 6 miles    
Events      
T = Trace of Precipitation, MM = Missing Value Source: NWS Daily Summary

Daily Weather History Graph

Daily Weather History Graph

Search for Another Location

Airport or City:

Trip Planner

Search our weather history database for the weather conditions in past years. The results will help you decide how hot, cold, wet, or windy it might be!

Date:

Astronomy

Dec. 19, 2013 Rise Set
Actual Time 7:00 AM PST 4:22 PM PST
Civil Twilight 6:29 AM PST 4:52 PM PST
Nautical Twilight 5:55 AM PST 5:26 PM PST
Astronomical Twilight 5:23 AM PST 5:59 PM PST
Moon 6:51 PM PST (12/19) 8:22 AM PST (12/19)
Length of Visible Light 10h 22m
Length of Day
9h 22m
Waning Gibbous, 95% of the Moon is Illuminated
Dec 19
Waning Gibbous
Dec 25
Last Quarter
Jan 1
New
Jan 7
First Quarter
Jan 15
Full

Hourly Weather History & Observations

Time (PST) Temp. Windchill Dew Point Humidity Pressure Visibility Wind Dir Wind Speed Gust Speed Precip Events Conditions
12:00 AM 32.0 °F 25.6 °F 32.0 °F 100% 29.70 in 2.0 mi SSE 6.9 mph - 0.20 in   Overcast
12:20 AM 32.0 °F 27.5 °F 32.0 °F 100% 29.69 in 2.5 mi SSW 4.6 mph - 0.02 in   Overcast
12:40 AM 32.0 °F 26.4 °F 32.0 °F 100% 29.69 in 1.0 mi SW 5.8 mph - 0.03 in   Overcast
1:00 AM 32.0 °F 28.7 °F 32.0 °F 100% 29.68 in 1.2 mi SSW 3.5 mph - 0.03 in   Overcast
1:20 AM 32.0 °F - 32.0 °F 100% 29.67 in 3.0 mi Calm Calm - 0.01 in   Overcast
1:40 AM 32.0 °F - 32.0 °F 100% 29.67 in 2.5 mi Calm Calm - 0.01 in   Overcast
2:00 AM 32.0 °F - 32.0 °F 100% 29.66 in 2.0 mi Calm Calm - 0.01 in   Overcast
2:20 AM 32.0 °F - 32.0 °F 100% 29.66 in 2.0 mi Calm Calm - 0.01 in   Overcast
2:40 AM 32.0 °F 28.7 °F 32.0 °F 100% 29.65 in 2.0 mi SSW 3.5 mph - 0.03 in   Overcast
3:00 AM 32.0 °F 27.5 °F 32.0 °F 100% 29.65 in 3.0 mi SSW 4.6 mph - 0.05 in   Overcast
3:20 AM 32.0 °F - 32.0 °F 100% 29.64 in 4.0 mi Calm Calm - 0.03 in   Overcast
3:40 AM 32.0 °F 28.7 °F 32.0 °F 100% 29.64 in 4.0 mi South 3.5 mph - 0.04 in   Overcast
4:00 AM 32.0 °F - 32.0 °F 100% 29.64 in 5.0 mi Calm Calm - 0.06 in   Overcast
4:20 AM 32.0 °F 28.7 °F 32.0 °F 100% 29.62 in 6.0 mi SSE 3.5 mph - 0.01 in   Overcast
4:40 AM 32.0 °F - 32.0 °F 100% 29.63 in 7.0 mi Calm Calm - 0.03 in   Overcast
5:00 AM 32.0 °F - 32.0 °F 100% 29.62 in 7.0 mi Calm Calm - 0.04 in   Overcast
5:20 AM 32.0 °F - 32.0 °F 100% 29.62 in 4.0 mi Calm Calm - 0.01 in   Overcast
5:40 AM 32.0 °F 27.5 °F 32.0 °F 100% 29.63 in 2.0 mi NNW 4.6 mph - 0.02 in   Overcast
6:00 AM 32.0 °F 25.6 °F 32.0 °F 100% 29.63 in 2.0 mi NNW 6.9 mph - 0.04 in   Overcast
6:20 AM 32.0 °F - 32.0 °F 100% 29.64 in 1.8 mi Calm Calm - N/A   Overcast
6:40 AM 32.0 °F - 30.2 °F 93% 29.66 in 1.8 mi Calm Calm - N/A   Overcast
7:00 AM 32.0 °F - 30.2 °F 93% 29.67 in 1.5 mi Calm Calm - N/A   Overcast
7:20 AM 32.0 °F - 30.2 °F 93% 29.67 in 1.0 mi Calm Calm - N/A   Overcast
7:40 AM 32.0 °F - 28.4 °F 87% 29.68 in 1.2 mi Calm Calm - N/A   Overcast
8:00 AM 30.2 °F - 28.4 °F 93% 29.69 in 0.8 mi Calm Calm - N/A   Overcast
8:20 AM 30.2 °F - 28.4 °F 93% 29.70 in 0.5 mi Calm Calm - 0.01 in   Overcast
8:40 AM 30.2 °F - 28.4 °F 93% 29.71 in 1.0 mi Calm Calm - 0.01 in   Mostly Cloudy
9:00 AM 30.2 °F - 26.6 °F 86% 29.73 in 1.5 mi Calm Calm - 0.01 in   Overcast
9:20 AM 30.2 °F - 26.6 °F 86% 29.75 in 1.5 mi Calm Calm - N/A   Overcast
9:40 AM 30.2 °F - 26.6 °F 86% 29.76 in 2.5 mi Calm Calm - N/A   Mostly Cloudy
10:00 AM 30.2 °F - 26.6 °F 86% 29.78 in 3.0 mi Calm Calm - N/A   Mostly Cloudy
10:20 AM 30.2 °F - 26.6 °F 86% 29.79 in 1.8 mi Calm Calm - N/A   Overcast
10:40 AM 30.2 °F - 26.6 °F 86% 29.79 in 5.0 mi Calm Calm - N/A   Mostly Cloudy
11:00 AM 28.4 °F - 24.8 °F 86% 29.80 in 9.0 mi Calm Calm - N/A   Partly Cloudy
11:20 AM 28.4 °F - 24.8 °F 86% 29.80 in 10.0 mi Calm Calm - N/A   Partly Cloudy
11:40 AM 28.4 °F - 24.8 °F 86% 29.80 in 10.0 mi Calm Calm - N/A   Clear
12:00 PM 30.2 °F - 24.8 °F 80% 29.81 in 10.0 mi Calm Calm - N/A   Clear
12:20 PM 28.4 °F - 24.8 °F 86% 29.81 in 10.0 mi Calm Calm - N/A   Scattered Clouds
3:20 PM 28.4 °F - 23.0 °F 80% 29.84 in 10.0 mi Calm Calm - N/A   Clear
3:40 PM 26.6 °F - 21.2 °F 80% 29.84 in 10.0 mi Calm Calm - N/A   Clear
4:00 PM 26.6 °F - 21.2 °F 80% 29.84 in 10.0 mi Calm Calm - N/A   Clear
4:20 PM 24.8 °F - 19.4 °F 80% 29.82 in 10.0 mi Calm Calm - N/A   Clear
4:40 PM 19.4 °F - 17.6 °F 93% 29.83 in 10.0 mi Calm Calm - N/A   Mostly Cloudy
5:00 PM 19.4 °F - 17.6 °F 93% 29.85 in 10.0 mi Calm Calm - N/A   Overcast
5:20 PM 17.6 °F - 15.8 °F 93% 29.87 in 10.0 mi Calm Calm - N/A   Overcast
5:40 PM 19.4 °F 9.5 °F 17.6 °F 93% 29.89 in 10.0 mi NNW 8.1 mph - N/A   Overcast
6:00 PM 23.0 °F - 17.6 °F 80% 29.90 in 10.0 mi North - - N/A   Overcast
6:20 PM 21.2 °F - 17.6 °F 86% 29.89 in 10.0 mi North - - N/A   Overcast
6:40 PM 23.0 °F - 17.6 °F 80% 29.89 in 10.0 mi North - - N/A   Overcast
7:00 PM 23.0 °F - 19.4 °F 86% 29.89 in 10.0 mi North - - N/A   Overcast
7:20 PM 23.0 °F - 17.6 °F 80% 29.90 in 10.0 mi Calm Calm - N/A   Overcast
7:40 PM 21.2 °F - 17.6 °F 86% 29.91 in 10.0 mi North - - N/A   Overcast
8:00 PM 23.0 °F - 17.6 °F 80% 29.92 in 10.0 mi Calm Calm - N/A   Overcast
8:20 PM 23.0 °F - 17.6 °F 80% 29.91 in 10.0 mi Calm Calm - N/A   Overcast
9:00 PM 21.2 °F - 17.6 °F 86% 29.94 in 10.0 mi Calm Calm - N/A   Overcast
9:20 PM 19.4 °F - 17.6 °F 93% 29.93 in 10.0 mi Calm Calm - N/A   Overcast
9:40 PM 19.4 °F - 15.8 °F 86% 29.93 in 10.0 mi Calm Calm - N/A   Overcast
10:20 PM 14.0 °F - 10.4 °F 86% 29.93 in 10.0 mi North - - N/A   Mostly Cloudy
10:40 PM 10.4 °F - 8.6 °F 92% 29.94 in 10.0 mi North - - N/A   Scattered Clouds
11:00 PM 12.2 °F - 8.6 °F 85% 29.95 in 10.0 mi North - - N/A   Overcast
11:20 PM 15.8 °F - 12.2 °F 86% 29.95 in 10.0 mi North - - N/A   Overcast
11:40 PM 15.8 °F - 14.0 °F 93% 29.95 in 10.0 mi North - - N/A   Overcast